Вернуться в каталог

HULIANWANG DIGUI-118

АктивенСвязьPO
NORAD 66957·PAYLOAD·🇨🇳 China

Запущен Dec 8, 2025 с Taiyuan Satellite Launch Center

Loading…

Ближайшие Пролёты (ближайшие 24 часа)

TLE

СвежийSource: Space-Track

Эпоха: Sep 14, 2026, 09:49 UTC

1 66957U 25287E   26257.40956379 -.00000061  00000-0 -17552-3 0  9994
2 66957  86.4877 252.1567 0001525  84.3914 275.7394 13.24407415 37159

Отслеживайте HULIANWANG DIGUI-118 в реальном времени с AllMySat

Download on the App Store